[[{"header":{"parameterUnit":"m.s-1","parameterCategory":1,"la1":30.2991,"la2":30.254,"lo1":-89.0895,"lo2":-89.0444,"dy":0.0017,"dx":0.0017,"nx":28,"ny":28,"refTime":"2023-04-06T21:00:00:Z","depth":0,"parameterNumber":2,"parameterNumberName":"U-component_of_WINDS"},"data":[0,0,0,0,0,0,0,0,0,0,0,0,0,0,0,0,0,0,0,0,0,0,0,0,0,0,0,0,0,0,0,0,0,0,0,0,0,0,0,0,0,0,0,0,0,0,0,0,0,0,0,0,0,0,0,0,0,0,-1.5622,-1.5621,0,-1.558,-1.5579,-1.5579,-1.5522,-1.5521,-1.552,-1.5519,-1.5478,-1.5478,-1.5477,0,0,0,0,0,0,0,0,0,0,0,0,0,-1.5654,-1.5654,-1.5622,-1.5621,-1.5621,-1.558,-1.5579,-1.5579,-1.5522,-1.5521,-1.552,-1.5519,-1.5478,-1.5478,-1.5477,0,0,0,0,0,0,0,0,0,0,0,0,0,-1.5629,-1.5654,-1.5622,-1.5587,-1.5584,-1.558,-1.5579,-1.5578,-1.5522,-1.5521,-1.552,-1.5518,-1.5478,-1.5478,-1.5477,-1.5504,0,0,-1.5476,-1.5476,0,0,0,0,0,0,0,0,-1.5631,-1.5628,-1.5593,-1.559,-1.5586,-1.5555,-1.5575,-1.5554,-1.5523,-1.5546,-1.5519,-1.5518,-1.5505,-1.5502,-1.5497,-1.5502,-1.55,-1.5476,-1.5476,-1.5476,-1.5476,0,0,0,0,0,0,0,-1.5632,-1.5629,-1.5605,-1.5593,-1.5588,-1.5575,-1.557,-1.5571,-1.5534,-1.5544,-1.5539,-1.5535,-1.5502,-1.5498,-1.5496,-1.55,-1.5476,-1.5476,-1.5476,-1.5476,-1.5524,-1.5525,0,0,0,0,0,0,-1.5639,-1.5631,-1.5606,-1.5604,-1.5605,-1.5575,-1.5569,-1.5566,-1.5534,-1.5527,-1.5536,-1.5533,-1.5499,-1.5496,-1.5494,-1.5523,-1.5476,-1.5476,-1.5475,-1.5522,-1.5524,-1.5526,0,0,0,0,0,0,-1.564,-1.5637,-1.5608,-1.5616,-1.5612,-1.5576,-1.5573,-1.5566,-1.5561,-1.5528,-1.5521,-1.5538,-1.5498,-1.5495,-1.5502,-1.552,-1.5475,-1.5475,-1.5521,-1.5523,-1.5525,-1.558,0,0,0,0,0,0,-1.5641,-1.5638,-1.5647,-1.5617,-1.5611,-1.5616,-1.5574,-1.5566,-1.5561,-1.5555,-1.5528,-1.5522,-1.5496,-1.5503,-1.5501,-1.5519,-1.5475,-1.5519,-1.5522,-1.5524,-1.5577,-1.5584,-1.5591,0,0,0,0,0,-1.5643,-1.5665,-1.5648,-1.5645,-1.5622,-1.5617,-1.5614,-1.5583,-1.5562,-1.5572,-1.555,-1.5523,-1.5519,-1.5504,-1.5502,-1.552,-1.5517,-1.5521,-1.5524,-1.5573,-1.5583,-1.559,0,0,0,0,0,0,-1.5699,-1.566,-1.5641,-1.5654,-1.5639,-1.5608,-1.5618,-1.5594,-1.5585,-1.558,-1.5543,-1.5538,-1.5549,-1.5535,-1.5519,-1.5544,-1.5514,-1.5517,-1.5552,-1.5561,-1.5568,-1.557,-1.5475,0,0,0,0,0,-1.5713,-1.5711,-1.5678,-1.5693,-1.5686,-1.5654,-1.565,-1.5628,-1.5611,-1.5605,-1.5584,-1.5569,-1.5564,-1.5562,-1.5556,-1.5575,-1.5568,-1.5587,-1.5594,-1.5599,-1.5602,-1.5611,-1.5619,-1.5537,-1.5537,-1.5537,0,0,-1.5741,-1.572,-1.5722,-1.5704,-1.5689,-1.5689,-1.5649,-1.565,-1.565,-1.5605,-1.561,-1.5595,-1.5576,-1.5589,-1.5594,-1.5578,-1.5624,-1.5604,-1.5609,-1.5608,-1.5615,-1.5623,-1.563,-1.5539,-1.5539,-1.5538,0,0,-1.5793,-1.5777,-1.5788,-1.5774,-1.5753,-1.5731,-1.5734,-1.5706,-1.5694,-1.5698,-1.5665,-1.5664,-1.5657,-1.5644,-1.5637,-1.5686,-1.566,-1.5685,-1.5721,-1.573,-1.5736,-1.5742,-1.5758,-1.5765,-1.5688,-1.5688,-1.5688,0,-1.5831,-1.5829,-1.5796,-1.5799,-1.5793,-1.5752,-1.5763,-1.5751,-1.573,-1.5726,-1.5709,-1.5699,-1.5683,-1.5693,-1.5704,-1.57,-1.5702,-1.5687,-1.5738,-1.5743,-1.5748,-1.5763,-1.577,-1.5691,-1.5691,-1.5691,-1.569,0,-1.5877,-1.5876,-1.5887,-1.5867,-1.5861,-1.5868,-1.5837,-1.5835,-1.5814,-1.5794,-1.58,-1.578,-1.5769,-1.577,-1.5749,-1.5777,-1.5767,-1.5745,-1.5714,-1.5759,-1.5773,-1.5779,-1.5696,-1.5695,-1.5694,-1.5693,0,0,-1.5962,-1.5923,-1.5928,-1.5918,-1.5892,-1.5891,-1.5897,-1.5885,-1.5885,-1.5872,-1.5875,-1.587,-1.5849,-1.5841,-1.5819,-1.5827,-1.5866,-1.5803,-1.5802,-1.5815,-1.5895,-1.5911,-1.5918,-1.585,-1.5851,-1.5851,-1.5896,0,-1.6008,-1.6014,-1.5985,-1.5999,-1.5998,-1.596,-1.5965,-1.595,-1.5932,-1.5929,-1.591,-1.5906,-1.5879,-1.5874,-1.588,-1.586,-1.5881,-1.5857,-1.5852,-1.5853,-1.5857,-1.5925,-1.5943,-1.5985,-1.5901,-1.5902,-1.5903,0,-1.6062,-1.6051,-1.6065,-1.6039,-1.6037,-1.6042,-1.6029,-1.6027,-1.6009,-1.5996,-1.5987,-1.5962,-1.5966,-1.5937,-1.5942,-1.5926,-1.5923,-1.5913,-1.5914,-1.5911,-1.588,-1.5924,-1.5998,-1.6004,-1.5911,-1.591,-1.591,0,-1.6121,-1.6111,-1.6117,-1.611,-1.608,-1.6084,-1.6072,-1.6053,-1.6048,-1.6037,-1.6034,-1.6025,-1.6019,-1.6013,-1.5985,-1.5967,-1.5994,-1.5963,-1.5982,-1.5983,-1.5988,-1.5988,-1.6063,-1.5989,-1.5989,-1.5989,-1.5988,0,-1.6175,-1.6185,-1.6144,-1.6148,-1.6158,-1.6125,-1.6136,-1.612,-1.6104,-1.6104,-1.6072,-1.6073,-1.6037,-1.6035,-1.6014,-1.6021,-1.602,-1.6009,-1.6003,-1.6011,-1.6012,-1.6007,-1.6003,-1.599,-1.599,-1.599,-1.5989,0,-1.6243,-1.6215,-1.622,-1.6191,-1.6184,-1.6193,-1.6168,-1.6171,-1.6151,-1.6152,-1.6151,-1.612,-1.6116,-1.6088,-1.6078,-1.6064,-1.6079,-1.6067,-1.6084,-1.608,-1.6101,-1.6099,-1.6173,-1.6181,-1.6104,-1.6105,-1.6105,0,-1.6278,-1.6284,-1.6256,-1.6254,-1.6243,-1.624,-1.6235,-1.6203,-1.6199,-1.618,-1.6186,-1.6178,-1.6171,-1.6166,-1.6143,-1.6135,-1.6123,-1.615,-1.6121,-1.6129,-1.6122,-1.6121,-1.6122,-1.6155,-1.6156,-1.6157,-1.6158,0,-1.6344,-1.633,-1.6323,-1.6312,-1.6307,-1.6297,-1.6285,-1.6286,-1.6251,-1.6248,-1.6243,-1.6237,-1.6226,-1.622,-1.6208,-1.6195,-1.6171,-1.6167,-1.6171,-1.6178,-1.6187,-1.6182,-1.6099,-1.6165,-1.6164,-1.6164,-1.6163,-1.6163,-1.6395,-1.6399,-1.638,-1.6374,-1.6361,-1.6351,-1.6352,-1.6333,-1.6328,-1.6316,-1.6298,-1.6295,-1.6278,-1.626,-1.625,-1.6247,-1.6233,-1.6239,-1.624,-1.6242,-1.6246,-1.6189,-1.6245,-1.6245,-1.6245,-1.6245,-1.6244,0,-1.6458,-1.6444,-1.6439,-1.6423,-1.6418,-1.6396,-1.6382,-1.6379,-1.6377,-1.6363,-1.6356,-1.6351,-1.6344,-1.6321,-1.6313,-1.6315,-1.6304,-1.6314,-1.6313,-1.631,-1.626,-1.6256,-1.6323,-1.6323,-1.6323,-1.6323,-1.6323,-1.6323,-1.649,-1.6495,-1.648,-1.6479,-1.6465,-1.6461,-1.6455,-1.6445,-1.6434,-1.6429,-1.6423,-1.6408,-1.6391,-1.638,-1.6374,-1.6367,-1.6365,-1.6379,-1.6369,-1.6321,-1.6314,-1.6306,-1.6303,-1.6379,-1.6379,-1.6419,-1.6419,-1.642]},{"header":{"parameterUnit":"m.s-1","parameterCategory":1,"la1":30.2991,"la2":30.254,"lo1":-89.0895,"lo2":-89.0444,"dy":0.0017,"dx":0.0017,"nx":28,"ny":28,"refTime":"2023-04-06T21:00:00:Z","depth":0,"parameterNumber":3,"parameterNumberName":"V-component_of_WINDS"},"data":[0,0,0,0,0,0,0,0,0,0,0,0,0,0,0,0,0,0,0,0,0,0,0,0,0,0,0,0,0,0,0,0,0,0,0,0,0,0,0,0,0,0,0,0,0,0,0,0,0,0,0,0,0,0,0,0,0,0,-0.6662,-0.6662,0,-0.6649,-0.6649,-0.6649,-0.6644,-0.6644,-0.6644,-0.6644,-0.6631,-0.6631,-0.663,0,0,0,0,0,0,0,0,0,0,0,0,0,-0.6679,-0.6679,-0.6662,-0.6662,-0.6661,-0.6649,-0.6649,-0.6649,-0.6644,-0.6644,-0.6644,-0.6644,-0.6631,-0.6631,-0.663,0,0,0,0,0,0,0,0,0,0,0,0,0,-0.667,-0.6679,-0.6662,-0.6658,-0.6657,-0.665,-0.6649,-0.6649,-0.6644,-0.6644,-0.6644,-0.6644,-0.6631,-0.6631,-0.663,-0.6626,0,0,-0.6628,-0.6628,0,0,0,0,0,0,0,0,-0.667,-0.6669,-0.6658,-0.6658,-0.6657,-0.6648,-0.6651,-0.6641,-0.6644,-0.6649,-0.6644,-0.6644,-0.6637,-0.6636,-0.6633,-0.6625,-0.6625,-0.6628,-0.6628,-0.6628,-0.6628,0,0,0,0,0,0,0,-0.6671,-0.6669,-0.6657,-0.6658,-0.6657,-0.6656,-0.6654,-0.6649,-0.6643,-0.6649,-0.6648,-0.6647,-0.6636,-0.6634,-0.6633,-0.6624,-0.6628,-0.6628,-0.6628,-0.6627,-0.661,-0.661,0,0,0,0,0,0,-0.6672,-0.667,-0.6657,-0.6656,-0.6664,-0.6655,-0.6654,-0.6651,-0.6643,-0.6642,-0.6647,-0.6647,-0.6635,-0.6634,-0.6632,-0.6625,-0.6628,-0.6627,-0.6627,-0.661,-0.661,-0.661,0,0,0,0,0,0,-0.6673,-0.6671,-0.6658,-0.6663,-0.6661,-0.6655,-0.6652,-0.6651,-0.6648,-0.6642,-0.664,-0.6646,-0.6635,-0.6633,-0.6627,-0.6625,-0.6627,-0.6626,-0.661,-0.661,-0.661,-0.6612,0,0,0,0,0,0,-0.6673,-0.6671,-0.667,-0.6663,-0.6661,-0.6653,-0.6652,-0.6651,-0.6647,-0.6647,-0.664,-0.6639,-0.6635,-0.6628,-0.6626,-0.6624,-0.6626,-0.661,-0.661,-0.661,-0.6612,-0.6612,-0.6612,0,0,0,0,0,-0.6674,-0.6672,-0.667,-0.6669,-0.6659,-0.6653,-0.6652,-0.6648,-0.6647,-0.6646,-0.6641,-0.6639,-0.6625,-0.6627,-0.6626,-0.6623,-0.661,-0.661,-0.661,-0.6612,-0.6612,-0.6612,0,0,0,0,0,0,-0.6679,-0.6671,-0.6669,-0.6664,-0.6659,-0.6652,-0.665,-0.6648,-0.6643,-0.6642,-0.6637,-0.6635,-0.6629,-0.6626,-0.6628,-0.6617,-0.6618,-0.6617,-0.662,-0.662,-0.662,-0.6621,-0.6626,0,0,0,0,0,-0.6679,-0.6675,-0.6668,-0.6665,-0.6662,-0.6657,-0.6654,-0.6651,-0.6645,-0.6643,-0.6638,-0.6632,-0.6627,-0.6623,-0.6618,-0.6612,-0.6609,-0.6609,-0.6609,-0.6609,-0.6608,-0.6603,-0.6602,-0.6609,-0.6609,-0.6609,0,0,-0.668,-0.6675,-0.6673,-0.6665,-0.6661,-0.6656,-0.6655,-0.665,-0.6646,-0.6642,-0.6636,-0.6632,-0.6625,-0.6618,-0.6615,-0.6615,-0.6606,-0.6608,-0.6608,-0.6608,-0.6603,-0.6602,-0.6602,-0.6609,-0.6609,-0.6609,0,0,-0.6679,-0.6676,-0.6672,-0.6667,-0.6661,-0.6657,-0.6656,-0.6649,-0.6646,-0.6639,-0.6636,-0.6631,-0.6622,-0.6616,-0.6613,-0.6608,-0.6606,-0.6607,-0.6606,-0.6601,-0.66,-0.66,-0.6597,-0.6596,-0.6606,-0.6606,-0.6606,0,-0.6681,-0.6675,-0.667,-0.6665,-0.6661,-0.6657,-0.6653,-0.6649,-0.6641,-0.6638,-0.6638,-0.6625,-0.662,-0.6612,-0.661,-0.6608,-0.6606,-0.6607,-0.6601,-0.66,-0.66,-0.6597,-0.6596,-0.6606,-0.6606,-0.6606,-0.6606,0,-0.6677,-0.6672,-0.6669,-0.6662,-0.6658,-0.6653,-0.6647,-0.6643,-0.664,-0.6636,-0.6628,-0.6622,-0.6615,-0.6613,-0.661,-0.6603,-0.6603,-0.6602,-0.6602,-0.6599,-0.6597,-0.6596,-0.6606,-0.6606,-0.6606,-0.6606,0,0,-0.668,-0.6668,-0.6667,-0.6663,-0.6655,-0.6651,-0.6645,-0.6638,-0.6634,-0.6629,-0.6623,-0.6614,-0.6613,-0.6609,-0.6605,-0.6601,-0.6596,-0.66,-0.66,-0.6599,-0.6587,-0.6587,-0.6586,-0.6594,-0.6594,-0.6594,-0.6587,0,-0.6677,-0.6668,-0.6663,-0.6655,-0.665,-0.6645,-0.664,-0.6634,-0.6629,-0.6623,-0.6618,-0.6612,-0.6611,-0.6608,-0.6604,-0.6598,-0.6593,-0.6598,-0.6588,-0.6588,-0.6589,-0.6585,-0.6585,-0.6579,-0.6586,-0.6586,-0.6586,0,-0.6673,-0.6667,-0.6659,-0.665,-0.6648,-0.6643,-0.6635,-0.663,-0.6622,-0.6619,-0.6614,-0.661,-0.6603,-0.6603,-0.6592,-0.6596,-0.6591,-0.6587,-0.6587,-0.6585,-0.6586,-0.6582,-0.6577,-0.6576,-0.6584,-0.6584,-0.6584,0,-0.6675,-0.6665,-0.6658,-0.6655,-0.6644,-0.6641,-0.6637,-0.6629,-0.6624,-0.6617,-0.6614,-0.6606,-0.6601,-0.6595,-0.6588,-0.659,-0.6578,-0.6578,-0.6574,-0.6574,-0.6572,-0.6572,-0.6565,-0.657,-0.657,-0.657,-0.657,0,-0.6673,-0.6667,-0.6658,-0.6654,-0.6648,-0.6642,-0.6635,-0.663,-0.6623,-0.6617,-0.6612,-0.6607,-0.6599,-0.6592,-0.6587,-0.6578,-0.6576,-0.6572,-0.6571,-0.6573,-0.6573,-0.6569,-0.6569,-0.6569,-0.657,-0.657,-0.657,0,-0.6673,-0.6667,-0.6659,-0.665,-0.6647,-0.6643,-0.6634,-0.6629,-0.6624,-0.6616,-0.6614,-0.6606,-0.6597,-0.659,-0.6579,-0.6575,-0.6565,-0.6564,-0.6568,-0.6567,-0.6563,-0.6563,-0.6553,-0.655,-0.6558,-0.6558,-0.6558,0,-0.6672,-0.6668,-0.6658,-0.6653,-0.6649,-0.6642,-0.6637,-0.663,-0.6625,-0.6615,-0.6611,-0.6602,-0.6595,-0.658,-0.6573,-0.6564,-0.6562,-0.6559,-0.656,-0.6561,-0.656,-0.656,-0.6559,-0.6558,-0.6558,-0.6558,-0.6558,0,-0.667,-0.6667,-0.666,-0.6652,-0.6646,-0.6639,-0.6632,-0.6629,-0.662,-0.6615,-0.6606,-0.66,-0.6587,-0.6578,-0.6568,-0.6562,-0.6558,-0.6558,-0.6556,-0.6557,-0.6559,-0.6557,-0.6567,-0.6558,-0.6558,-0.6558,-0.6558,-0.6558,-0.6669,-0.6665,-0.6656,-0.6649,-0.6642,-0.6636,-0.663,-0.6624,-0.6616,-0.6606,-0.6602,-0.6592,-0.6583,-0.6569,-0.6563,-0.6555,-0.6554,-0.6552,-0.6552,-0.6551,-0.655,-0.6561,-0.6553,-0.6553,-0.6553,-0.6553,-0.6553,0,-0.6666,-0.666,-0.6653,-0.6643,-0.6636,-0.6634,-0.6625,-0.662,-0.6611,-0.6603,-0.6595,-0.6584,-0.6574,-0.6565,-0.6555,-0.655,-0.6548,-0.6547,-0.6547,-0.6546,-0.6552,-0.6554,-0.6549,-0.6549,-0.6549,-0.6549,-0.6549,-0.6549,-0.6664,-0.6656,-0.6651,-0.6639,-0.6633,-0.6624,-0.6619,-0.6612,-0.6605,-0.6593,-0.6585,-0.6579,-0.657,-0.6558,-0.6549,-0.6546,-0.6542,-0.6542,-0.6539,-0.6545,-0.6545,-0.6546,-0.6548,-0.6541,-0.6541,-0.6533,-0.6533,-0.6533]}]]